"Pseudo-MPEC" for P112ejW

Created 2020 Jun 30 19:07:09 UT using Find_Orb

Click here for an explanation of pseudo-MPECs

 
 Astrometry: 
     P112ejW  C2020 06 28DZT2jBcWyrk7ReD_d0R%\7^8e##Wu)_Astrometryscn+-6o?iA0F51
     P112ejW  C2020 06 28Zsu$X:hd?J!#AtxV#7OA+5Nv*m?%$xSX0GGOfK*DhK$b#Ze;d,y5F51
     P112ejW  C2020 06 28P](pb`J:n($;)S\U^Cc*+g?J()1\\F3?N]'i-u]iyRsS4NknKTSVF51
     P112ejW  C2020 06 28ArZ#redacted;Uk:77'Vfd7/K2F:1x3g;c[f4v9`Wqclick;H1,`F51
     P112ejW ^C2020 06 29.58872720 58 56.960-38 21 33.66   ~6U0M 21.01GVNEOCP568
     P112ejW ^C2020 06 29.58967220 58 57.005-38 21 32.93   ~6U0M 21.04GVNEOCP568
     P112ejW ^C2020 06 29.59061920 58 57.052-38 21 32.15   ~6U0M 20.97GVNEOCP568
     P112ejW  C2020 06 30lVS5[?5u+3cITX36E+here$uD?R;4!A;r]A(k0c0E9;2V?gforhRF51
     P112ejW  C2020 06 30Wg75c[T;Qip1d1*G,flp*#;wr(S7IACcZ;LexplanationJAG98XF51
     P112ejW  C2020 06 30##$0]qgNvdFXq^'l[aUV[2#Ys;kvrbU(EcfT9*KU8R!t91jolvo5F51

Station data:
(568) Mauna Kea  (N19.826116 W155.472200)  US/Hawaii.
(F51) Pan-STARRS 1, Haleakala  (N20.707235 W156.255910)  US/Hawaii.
   Observers N. Primak, A. Schultz, S. Watters, J. Thiel, T. Goggia. Measurer
   PS1 Science Consortium. 1.8-m Ritchey-Chrétien + CCD.

Orbital elements:  P112ejW
   Perihelion 2020 Sep 29.713084 +/- 0.483 TT = 17:06:50 (JD 2459122.213084)
Epoch 2020 Jun 30.0 TT = JDT 2459030.5   Earth MOID: 0.0199   AutoNEOCP
M 288.86640215 +/- 0.9              (J2000 ecliptic)
n   0.77561014 +/- 0.0061           Peri.   82.05596 +/- 0.43
a   1.17320452 +/- 0.00615          Node   300.98065 +/- 0.16
e   0.2615970 +/- 0.00846           Incl.    8.33511 +/- 0.22
P   1.27/464.14d           H 23.6   G  0.15   U  9.3  
q 0.86629765 +/- 0.00595    Q 1.48011139 +/- 0.0175
From 10 observations 2020 June 28-30; mean residual 0".04
Residuals in arcseconds: 
200628 F51  .01+  .03+    200629 568  .01+  .01+    200630 F51  .08+  .06-    
200628 F51  .05-  .04+    200629 568  .00   .02-    200630 F51  .07-  .03+    
200628 F51  .00   .02+    200629 568  .00   .00     
200628 F51  .03+  .08-    200630 F51  .02-  .04+    

Ephemerides (geocentric):
Date (UTC) HH   RA              Dec         delta   r     elong  mag " sig PA
---- -- -- --  -------------   -----------  ------ ------ -----  --- ---- ---
2020 06 30 19  21 00 28.513   -38 05 09.82  .15475 1.1489 146.5 21.2 .823 161
2020 06 30 20  21 00 31.632   -38 04 35.20  .15451 1.1487 146.5 21.2 .818 158
2020 06 30 21  21 00 34.751   -38 04 00.44  .15428 1.1486 146.6 21.2 .815 155
2020 06 30 22  21 00 37.870   -38 03 25.54  .15404 1.1484 146.6 21.2 .813 152
2020 06 30 23  21 00 40.990   -38 02 50.49  .15380 1.1482 146.6 21.2 .815 149
2020 07 01 00  21 00 44.109   -38 02 15.29  .15356 1.1480 146.6 21.2 .819 145
2020 07 01 01  21 00 47.228   -38 01 39.94  .15332 1.1479 146.7 21.1 .827 142
2020 07 01 02  21 00 50.348   -38 01 04.45  .15308 1.1477 146.7 21.1 .838 138
2020 07 01 03  21 00 53.467   -38 00 28.81  .15285 1.1475 146.7 21.1 .852 135
2020 07 01 04  21 00 56.587   -37 59 53.02  .15261 1.1473 146.7 21.1 .870 131
2020 07 01 05  21 00 59.707   -37 59 17.08  .15237 1.1472 146.8 21.1 .891 128
2020 07 01 06  21 01 02.827   -37 58 40.99  .15213 1.1470 146.8 21.1 .917 124
2020 07 01 07  21 01 05.947   -37 58 04.75  .15190 1.1468 146.8 21.1 .946 121
2020 07 01 08  21 01 09.067   -37 57 28.36  .15166 1.1466 146.8 21.1 .979 118
2020 07 01 09  21 01 12.188   -37 56 51.82  .15142 1.1464 146.9 21.1 1.02 115
2020 07 01 10  21 01 15.308   -37 56 15.12  .15118 1.1463 146.9 21.1 1.06 112
2020 07 01 11  21 01 18.429   -37 55 38.27  .15095 1.1461 146.9 21.1 1.10 109
2020 07 01 12  21 01 21.550   -37 55 01.27  .15071 1.1459 146.9 21.1 1.15 107
2020 07 01 13  21 01 24.672   -37 54 24.11  .15047 1.1457 146.9 21.1 1.20 104
2020 07 01 14  21 01 27.793   -37 53 46.80  .15023 1.1456 147.0 21.1 1.25 102
2020 07 01 15  21 01 30.915   -37 53 09.33  .15000 1.1454 147.0 21.1 1.31 100
2020 07 01 16  21 01 34.037   -37 52 31.71  .14976 1.1452 147.0 21.1 1.37  98
2020 07 01 17  21 01 37.159   -37 51 53.93  .14952 1.1450 147.0 21.1 1.43  96
2020 07 01 18  21 01 40.282   -37 51 15.99  .14929 1.1449 147.1 21.1 1.50  94
2020 07 01 19  21 01 43.405   -37 50 37.89  .14905 1.1447 147.1 21.1 1.57  92
2020 07 01 20  21 01 46.528   -37 49 59.63  .14881 1.1445 147.1 21.1 1.64  91
2020 07 01 21  21 01 49.652   -37 49 21.22  .14858 1.1443 147.1 21.1 1.72  89
2020 07 01 22  21 01 52.776   -37 48 42.64  .14834 1.1442 147.2 21.1 1.79  88
2020 07 01 23  21 01 55.900   -37 48 03.90  .14810 1.1440 147.2 21.1 1.87  87
2020 07 02 00  21 01 59.025   -37 47 25.00  .14787 1.1438 147.2 21.1 1.96  85
2020 07 02 01  21 02 02.150   -37 46 45.94  .14763 1.1436 147.2 21.0 2.04  84
2020 07 02 02  21 02 05.275   -37 46 06.71  .14740 1.1434 147.3 21.0 2.13  83
2020 07 02 03  21 02 08.401   -37 45 27.32  .14716 1.1433 147.3 21.0 2.22  82
2020 07 02 04  21 02 11.527   -37 44 47.77  .14692 1.1431 147.3 21.0 2.31  81
2020 07 02 05  21 02 14.654   -37 44 08.05  .14669 1.1429 147.3 21.0 2.41  80
2020 07 02 06  21 02 17.781   -37 43 28.16  .14645 1.1427 147.4 21.0 2.50  80
2020 07 02 07  21 02 20.909   -37 42 48.11  .14622 1.1426 147.4 21.0 2.60  79
2020 07 02 08  21 02 24.037   -37 42 07.89  .14598 1.1424 147.4 21.0 2.71  78
2020 07 02 09  21 02 27.165   -37 41 27.50  .14575 1.1422 147.4 21.0 2.81  77
2020 07 02 10  21 02 30.294   -37 40 46.94  .14551 1.1420 147.5 21.0 2.92  77
2020 07 02 11  21 02 33.424   -37 40 06.22  .14528 1.1419 147.5 21.0 3.03  76
2020 07 02 12  21 02 36.554   -37 39 25.32  .14504 1.1417 147.5 21.0 3.14  75
2020 07 02 13  21 02 39.684   -37 38 44.25  .14481 1.1415 147.5 21.0 3.25  75
2020 07 02 14  21 02 42.816   -37 38 03.01  .14457 1.1413 147.5 21.0 3.37  74
2020 07 02 15  21 02 45.947   -37 37 21.60  .14434 1.1411 147.6 21.0 3.49  74
2020 07 02 16  21 02 49.080   -37 36 40.01  .14410 1.1410 147.6 21.0 3.61  73
2020 07 02 17  21 02 52.212   -37 35 58.25  .14387 1.1408 147.6 21.0 3.73  72
2020 07 02 18  21 02 55.346   -37 35 16.32  .14363 1.1406 147.6 21.0 3.85  72